This is the latest recevied weather packets stored in our database for station/object KA9CBS. If no packets are shown the sender has not sent any weather packets the latest 10 day(s).
| Time | Temp. | Humidity | Pressure | Rain* | Wind** | Luminosity | Snow |
|---|---|---|---|---|---|---|---|
| 1787782975 | 31.67° C | 66% | 1014.5 hPa | 0 mm | - | 72 W/m² | - |
| 1787782674 | 31.67° C | 65% | 1014.6 hPa | 0 mm | - | 69 W/m² | - |
| 1787782370 | 31.11° C | 70% | 1014.5 hPa | 0 mm | - | 76 W/m² | - |
| 1787782065 | 31.11° C | 70% | 1014.6 hPa | 0 mm | - | 94 W/m² | - |
| 1787781760 | 31.11° C | 71% | 1014.5 hPa | 0 mm | - | 91 W/m² | - |
| 1787781458 | 31.11° C | 71% | 1014.4 hPa | 0 mm | - | 308 W/m² | - |
| 1787781158 | 31.11° C | 68% | 1014.6 hPa | 0 mm | - | 108 W/m² | - |
| 1787780856 | 31.67° C | 68% | 1014.6 hPa | 0 mm | - | 83 W/m² | - |
| 1787780550 | 31.67° C | 67% | 1014.4 hPa | 0 mm | - | 262 W/m² | - |
| 1787780246 | 31.67° C | 67% | 1014.6 hPa | 0 mm | - | 108 W/m² | - |
| 1787779941 | 31.67° C | 66% | 1014.4 hPa | 0 mm | - | 113 W/m² | - |
| 1787779636 | 31.67° C | 67% | 1014.7 hPa | 0 mm | - | 143 W/m² | - |
| 1787779335 | 31.11° C | 71% | 1014.8 hPa | 0 mm | - | 109 W/m² | - |
| 1787779030 | 31.67° C | 68% | 1014.6 hPa | 0 mm | - | 132 W/m² | - |
| 1787778726 | 32.22° C | 67% | 1014.6 hPa | 0 mm | - | 150 W/m² | - |
| 1787778421 | 32.22° C | 66% | 1014.9 hPa | 0 mm | - | 155 W/m² | - |
| 1787778116 | 32.22° C | 67% | 1014.7 hPa | 0 mm | - | 505 W/m² | - |
| 1787777815 | 32.22° C | 67% | 1015.3 hPa | 0 mm | - | 533 W/m² | - |
| 1787777512 | 32.22° C | 66% | 1015.3 hPa | 0 mm | - | 508 W/m² | - |
| 1787777207 | 32.22° C | 67% | 1015.3 hPa | 0 mm | - | 556 W/m² | - |
| 1787776906 | 32.22° C | 65% | 1015.4 hPa | 0 mm | - | 566 W/m² | - |
| 1787776604 | 32.22° C | 66% | 1015.5 hPa | 0 mm | - | 614 W/m² | - |
| 1787776298 | 32.22° C | 67% | 1015.6 hPa | 0 mm | - | 612 W/m² | - |
| 1787775996 | 32.22° C | 64% | 1015.6 hPa | 0 mm | - | 592 W/m² | - |
| 1787775692 | 32.22° C | 65% | 1015.7 hPa | 0 mm | - | 585 W/m² | - |
* Rain latest hour (hover to see other rain measurements)
** Current wind speed in m/s (hover to see current wind gust speed)